This is the latest recevied weather packets stored in our database for station/object W6TKD-13. If no packets are shown the sender has not sent any weather packets the latest 10 day(s).
| Time | Temp. | Humidity | Pressure | Rain* | Wind** | Luminosity | Snow |
|---|---|---|---|---|---|---|---|
| 1777791890 | 13.89° C | 52% | 1011.4 hPa | 0 mm | - | - | - |
| 1777791223 | 13.89° C | 52% | 1011.4 hPa | 0 mm | - | - | - |
| 1777790556 | 14.44° C | 52% | 1011.5 hPa | 0 mm | - | - | - |
| 1777789889 | 14.44° C | 52% | 1011.4 hPa | 0 mm | - | - | - |
| 1777789221 | 14.44° C | 52% | 1011.5 hPa | 0 mm | - | - | - |
| 1777788555 | 14.44° C | 51% | 1011.5 hPa | 0 mm | - | - | - |
| 1777787887 | 15° C | 51% | 1011.6 hPa | 0 mm | - | - | - |
| 1777787224 | 15° C | 51% | 1011.6 hPa | 0 mm | - | - | - |
| 1777786554 | 15.56° C | 51% | 1011.7 hPa | 0 mm | - | - | - |
| 1777785887 | 15.56° C | 50% | 1011.8 hPa | 0 mm | - | - | - |
| 1777785220 | 15.56° C | 50% | 1011.8 hPa | 0 mm | - | - | - |
| 1777784553 | 16.11° C | 50% | 1011.8 hPa | 0 mm | - | - | - |
| 1777783886 | 16.67° C | 50% | 1011.7 hPa | 0 mm | - | - | - |
| 1777783218 | 16.67° C | 49% | 1011.6 hPa | 0 mm | - | - | - |
| 1777782551 | 17.22° C | 49% | 1011.5 hPa | 0 mm | - | - | - |
| 1777781217 | 17.78° C | 49% | 1011.4 hPa | 0 mm | - | - | - |
| 1777780551 | 17.78° C | 48% | 1011.2 hPa | 0 mm | - | - | - |
| 1777779884 | 18.33° C | 48% | 1011.2 hPa | 0 mm | - | - | - |
| 1777779217 | 18.33° C | 48% | 1011.1 hPa | 0 mm | - | - | - |
| 1777778550 | 18.89° C | 48% | 1011 hPa | 0 mm | - | - | - |
| 1777777883 | 19.44° C | 47% | 1011.1 hPa | 0 mm | - | - | - |
| 1777777216 | 19.44° C | 47% | 1010.9 hPa | 0 mm | - | - | - |
| 1777775882 | 20.56° C | 47% | 1010.8 hPa | 0 mm | - | - | - |
| 1777775215 | 21.11° C | 46% | 1010.8 hPa | 0 mm | - | - | - |
| 1777774548 | 21.67° C | 46% | 1010.8 hPa | 0 mm | - | - | - |
* Rain since midnight (hover to see other rain measurements)
** Current wind speed in m/s (hover to see current wind gust speed)